This is the latest recevied weather packets stored in our database for station/object N3TJJ-2. If no packets are shown the sender has not sent any weather packets the latest 10 day(s).
| Time | Temp. | Humidity | Pressure | Rain* | Wind** | Luminosity | Snow |
|---|---|---|---|---|---|---|---|
| 1788024647 | 23.33° C | 51% | 1025.8 hPa | 0 mm | - | - | - |
| 1788024284 | 23.33° C | 53% | 1025.8 hPa | 0 mm | - | - | - |
| 1788023933 | 23.33° C | 55% | 1025.9 hPa | 0 mm | - | - | - |
| 1788023573 | 23.33° C | 56% | 1026.1 hPa | 0 mm | - | - | - |
| 1788023203 | 23.33° C | 56% | 1026 hPa | 0 mm | - | - | - |
| 1788022846 | 23.33° C | 55% | 1026.1 hPa | 0 mm | - | - | - |
| 1788022515 | 22.78° C | 55% | 1026.1 hPa | 0 mm | - | - | - |
| 1788022129 | 22.78° C | 54% | 1026.2 hPa | 0 mm | - | - | - |
| 1788021764 | 22.78° C | 55% | 1026.3 hPa | 0 mm | - | - | - |
| 1788021403 | 22.78° C | 56% | 1026.3 hPa | 0 mm | - | - | - |
| 1788021043 | 22.78° C | 55% | 1026.3 hPa | 0 mm | - | - | - |
| 1788020688 | 22.22° C | 57% | 1026.3 hPa | 0 mm | - | - | - |
| 1788020361 | 22.22° C | 56% | 1026.2 hPa | 0 mm | - | - | - |
| 1788019965 | 22.22° C | 59% | 1026.2 hPa | 0 mm | - | - | - |
| 1788019711 | 22.22° C | 57% | 1026.2 hPa | 0 mm | - | - | - |
| 1788019262 | 22.22° C | 59% | 1026.3 hPa | 0 mm | - | - | - |
| 1788018904 | 21.67° C | 58% | 1026.5 hPa | 0 mm | - | - | - |
| 1788018539 | 21.67° C | 57% | 1026.5 hPa | 0 mm | - | - | - |
| 1788018178 | 21.67° C | 57% | 1026.4 hPa | 0 mm | - | - | - |
| 1788017812 | 21.11° C | 57% | 1026.5 hPa | 0 mm | - | - | - |
| 1788017448 | 21.67° C | 58% | 1026.5 hPa | 0 mm | - | - | - |
| 1788017089 | 21.11° C | 57% | 1026.5 hPa | 0 mm | - | - | - |
| 1788016737 | 21.11° C | 58% | 1026.5 hPa | 0 mm | - | - | - |
| 1788016363 | 21.11° C | 60% | 1026.4 hPa | 0 mm | - | - | - |
| 1788016016 | 21.11° C | 59% | 1026.3 hPa | 0 mm | - | - | - |
* Rain latest hour (hover to see other rain measurements)
** Current wind speed in m/s (hover to see current wind gust speed)